owner,sensor,date,latitude,longitude,vertical_datum,sea_water_practical_salinity,qcFlag 
DISL,ioos:station:DISL:KATA:1,2019-04-01T00:30:00Z,30.2583,-88.2131,4.299,8.47,1111122 
DISL,ioos:station:DISL:KATA:1,2019-04-01T01:30:00Z,30.2583,-88.2131,4.28,8.49,1111122 
DISL,ioos:station:DISL:KATA:1,2019-04-01T02:30:00Z,30.2583,-88.2131,4.217,8.48,1111122 
DISL,ioos:station:DISL:KATA:1,2019-04-01T03:30:00Z,30.2583,-88.2131,4.208,8.51,1111122 
DISL,ioos:station:DISL:KATA:1,2019-04-01T04:30:00Z,30.2583,-88.2131,4.208,8.49,1111122 
DISL,ioos:station:DISL:KATA:1,2019-04-01T05:30:00Z,30.2583,-88.2131,4.142,8.47,1111122 
DISL,ioos:station:DISL:KATA:1,2019-04-01T06:30:00Z,30.2583,-88.2131,4.086,8.5,1111122 
DISL,ioos:station:DISL:KATA:1,2019-04-01T07:30:00Z,30.2583,-88.2131,4.031,8.43,1111122 
DISL,ioos:station:DISL:KATA:1,2019-04-01T08:30:00Z,30.2583,-88.2131,3.978,8.44,1111122 
DISL,ioos:station:DISL:KATA:1,2019-04-01T09:30:00Z,30.2583,-88.2131,3.909,8.25,1111122 
DISL,ioos:station:DISL:KATA:1,2019-04-01T10:30:00Z,30.2583,-88.2131,3.906,8.1,1111122 
DISL,ioos:station:DISL:KATA:1,2019-04-01T11:30:00Z,30.2583,-88.2131,3.961,8.0,1111122 
DISL,ioos:station:DISL:KATA:1,2019-04-01T12:30:00Z,30.2583,-88.2131,4.018,7.95,1111122 
DISL,ioos:station:DISL:KATA:1,2019-04-01T13:30:00Z,30.2583,-88.2131,4.018,7.99,1111122 
DISL,ioos:station:DISL:KATA:1,2019-04-01T14:30:00Z,30.2583,-88.2131,4.003,7.86,1111122 
DISL,ioos:station:DISL:KATA:1,2019-04-01T15:30:00Z,30.2583,-88.2131,4.017,7.86,1111122 
DISL,ioos:station:DISL:KATA:1,2019-04-01T16:30:00Z,30.2583,-88.2131,4.095,7.89,1111122 
DISL,ioos:station:DISL:KATA:1,2019-04-01T17:30:00Z,30.2583,-88.2131,4.164,7.89,1111122 
DISL,ioos:station:DISL:KATA:1,2019-04-01T18:30:00Z,30.2583,-88.2131,4.194,7.89,1111122 
DISL,ioos:station:DISL:KATA:1,2019-04-01T19:30:00Z,30.2583,-88.2131,4.19,7.92,1111122 
DISL,ioos:station:DISL:KATA:1,2019-04-01T20:30:00Z,30.2583,-88.2131,4.194,8.0,1111122 
DISL,ioos:station:DISL:KATA:1,2019-04-01T21:30:00Z,30.2583,-88.2131,4.217,8.03,1111122 
DISL,ioos:station:DISL:KATA:1,2019-04-01T22:30:00Z,30.2583,-88.2131,4.257,8.09,1111122 
DISL,ioos:station:DISL:KATA:1,2019-04-01T23:30:00Z,30.2583,-88.2131,4.3,8.18,1111122 
DISL,ioos:station:DISL:KATA:1,2019-04-02T00:30:00Z,30.2583,-88.2131,4.327,8.23,1111122 
DISL,ioos:station:DISL:KATA:1,2019-04-02T01:30:00Z,30.2583,-88.2131,4.327,8.31,1111122 
DISL,ioos:station:DISL:KATA:1,2019-04-02T02:30:00Z,30.2583,-88.2131,4.315,8.5,1111122 
DISL,ioos:station:DISL:KATA:1,2019-04-02T03:30:00Z,30.2583,-88.2131,4.326,8.91,1111122 
DISL,ioos:station:DISL:KATA:1,2019-04-02T04:30:00Z,30.2583,-88.2131,4.308,9.22,1111122 
DISL,ioos:station:DISL:KATA:1,2019-04-02T06:00:00Z,30.2583,-88.2131,4.165,9.47,1111122 
DISL,ioos:station:DISL:KATA:1,2019-04-02T06:30:00Z,30.2583,-88.2131,4.125,9.49,1111122 
DISL,ioos:station:DISL:KATA:1,2019-04-02T07:30:00Z,30.2583,-88.2131,4.067,8.96,1111122 
DISL,ioos:station:DISL:KATA:1,2019-04-02T08:30:00Z,30.2583,-88.2131,4.027,8.54,1111122 
DISL,ioos:station:DISL:KATA:1,2019-04-02T09:30:00Z,30.2583,-88.2131,4.031,8.39,1111122 
DISL,ioos:station:DISL:KATA:1,2019-04-02T10:30:00Z,30.2583,-88.2131,3.997,8.25,1111122 
DISL,ioos:station:DISL:KATA:1,2019-04-02T11:30:00Z,30.2583,-88.2131,3.956,8.17,1111122 
DISL,ioos:station:DISL:KATA:1,2019-04-02T12:30:00Z,30.2583,-88.2131,3.947,8.05,1111122 
DISL,ioos:station:DISL:KATA:1,2019-04-02T13:30:00Z,30.2583,-88.2131,3.997,8.01,1111122 
DISL,ioos:station:DISL:KATA:1,2019-04-02T14:30:00Z,30.2583,-88.2131,4.056,9.96,1111122 
DISL,ioos:station:DISL:KATA:1,2019-04-02T15:30:00Z,30.2583,-88.2131,4.084,10.23,1111122 
DISL,ioos:station:DISL:KATA:1,2019-04-02T16:30:00Z,30.2583,-88.2131,4.142,10.09,1111122 
DISL,ioos:station:DISL:KATA:1,2019-04-02T17:30:00Z,30.2583,-88.2131,4.141,9.82,1111122 
DISL,ioos:station:DISL:KATA:1,2019-04-02T18:30:00Z,30.2583,-88.2131,4.163,9.68,1111122 
DISL,ioos:station:DISL:KATA:1,2019-04-02T19:30:00Z,30.2583,-88.2131,4.146,10.35,1111122 
DISL,ioos:station:DISL:KATA:1,2019-04-02T20:30:00Z,30.2583,-88.2131,4.152,10.94,1111122 
DISL,ioos:station:DISL:KATA:1,2019-04-02T21:30:00Z,30.2583,-88.2131,4.175,10.97,1111122 
DISL,ioos:station:DISL:KATA:1,2019-04-02T22:30:00Z,30.2583,-88.2131,4.184,10.95,1111122 
DISL,ioos:station:DISL:KATA:1,2019-04-02T23:30:00Z,30.2583,-88.2131,4.218,10.98,1111122 
DISL,ioos:station:DISL:KATA:1,2019-04-03T00:30:00Z,30.2583,-88.2131,4.261,11.07,1111122 
DISL,ioos:station:DISL:KATA:1,2019-04-03T01:30:00Z,30.2583,-88.2131,4.278,11.04,1111122 
DISL,ioos:station:DISL:KATA:1,2019-04-03T02:30:00Z,30.2583,-88.2131,4.248,10.93,1111122 
DISL,ioos:station:DISL:KATA:1,2019-04-03T03:30:00Z,30.2583,-88.2131,4.214,10.87,1111122 
DISL,ioos:station:DISL:KATA:1,2019-04-03T04:30:00Z,30.2583,-88.2131,4.188,10.73,1111122 
DISL,ioos:station:DISL:KATA:1,2019-04-03T05:30:00Z,30.2583,-88.2131,4.145,10.4,1111122 
DISL,ioos:station:DISL:KATA:1,2019-04-03T06:30:00Z,30.2583,-88.2131,4.115,10.24,1111122 
DISL,ioos:station:DISL:KATA:1,2019-04-03T07:30:00Z,30.2583,-88.2131,4.063,10.11,1111122 
DISL,ioos:station:DISL:KATA:1,2019-04-03T08:30:00Z,30.2583,-88.2131,4.002,10.12,1111122 
DISL,ioos:station:DISL:KATA:1,2019-04-03T09:30:00Z,30.2583,-88.2131,3.971,9.56,1111122 
DISL,ioos:station:DISL:KATA:1,2019-04-03T10:30:00Z,30.2583,-88.2131,3.958,9.87,1111122 
DISL,ioos:station:DISL:KATA:1,2019-04-03T11:30:00Z,30.2583,-88.2131,3.971,10.16,1111122 
DISL,ioos:station:DISL:KATA:1,2019-04-03T12:30:00Z,30.2583,-88.2131,3.987,10.18,1111122 
DISL,ioos:station:DISL:KATA:1,2019-04-03T13:30:00Z,30.2583,-88.2131,4.001,10.38,1111122 
DISL,ioos:station:DISL:KATA:1,2019-04-03T14:30:00Z,30.2583,-88.2131,4.026,10.59,1111122 
DISL,ioos:station:DISL:KATA:1,2019-04-03T15:30:00Z,30.2583,-88.2131,4.049,10.69,1111122 
DISL,ioos:station:DISL:KATA:1,2019-04-03T16:30:00Z,30.2583,-88.2131,4.063,10.69,1111122 
DISL,ioos:station:DISL:KATA:1,2019-04-03T17:30:00Z,30.2583,-88.2131,4.091,10.65,1111122 
DISL,ioos:station:DISL:KATA:1,2019-04-03T18:30:00Z,30.2583,-88.2131,4.115,10.53,1111122 
DISL,ioos:station:DISL:KATA:1,2019-04-03T19:30:00Z,30.2583,-88.2131,4.077,10.52,1111122 
DISL,ioos:station:DISL:KATA:1,2019-04-03T20:30:00Z,30.2583,-88.2131,4.037,10.43,1111122 
DISL,ioos:station:DISL:KATA:1,2019-04-03T21:30:00Z,30.2583,-88.2131,4.03,10.58,1111122 
DISL,ioos:station:DISL:KATA:1,2019-04-03T22:30:00Z,30.2583,-88.2131,4.057,10.6,1111122 
DISL,ioos:station:DISL:KATA:1,2019-04-03T23:30:00Z,30.2583,-88.2131,4.121,10.65,1111122 
DISL,ioos:station:DISL:KATA:1,2019-04-04T00:30:00Z,30.2583,-88.2131,4.159,10.74,1111122 
DISL,ioos:station:DISL:KATA:1,2019-04-04T01:30:00Z,30.2583,-88.2131,4.165,10.92,1111122 
DISL,ioos:station:DISL:KATA:1,2019-04-04T02:30:00Z,30.2583,-88.2131,4.158,11.12,1111122 
DISL,ioos:station:DISL:KATA:1,2019-04-04T03:30:00Z,30.2583,-88.2131,4.164,11.32,1111122 
DISL,ioos:station:DISL:KATA:1,2019-04-04T04:30:00Z,30.2583,-88.2131,4.191,11.36,1111122 
DISL,ioos:station:DISL:KATA:1,2019-04-04T05:30:00Z,30.2583,-88.2131,4.198,11.4,1111122 
DISL,ioos:station:DISL:KATA:1,2019-04-04T06:30:00Z,30.2583,-88.2131,4.19,11.4,1111122 
DISL,ioos:station:DISL:KATA:1,2019-04-04T07:30:00Z,30.2583,-88.2131,4.161,11.44,1111122 
DISL,ioos:station:DISL:KATA:1,2019-04-04T08:30:00Z,30.2583,-88.2131,4.107,11.5,1111122 
DISL,ioos:station:DISL:KATA:1,2019-04-04T09:30:00Z,30.2583,-88.2131,4.061,11.45,1111122 
DISL,ioos:station:DISL:KATA:1,2019-04-04T10:30:00Z,30.2583,-88.2131,4.004,11.51,1111122 
DISL,ioos:station:DISL:KATA:1,2019-04-04T11:30:00Z,30.2583,-88.2131,4.012,11.52,1111122 
DISL,ioos:station:DISL:KATA:1,2019-04-04T12:30:00Z,30.2583,-88.2131,4.031,11.56,1111122 
DISL,ioos:station:DISL:KATA:1,2019-04-04T13:30:00Z,30.2583,-88.2131,4.088,11.67,1111122 
DISL,ioos:station:DISL:KATA:1,2019-04-04T14:30:00Z,30.2583,-88.2131,4.157,11.75,1111122 
DISL,ioos:station:DISL:KATA:1,2019-04-04T15:30:00Z,30.2583,-88.2131,4.2,11.8,1111122 
DISL,ioos:station:DISL:KATA:1,2019-04-04T16:30:00Z,30.2583,-88.2131,4.261,11.81,1111122 
DISL,ioos:station:DISL:KATA:1,2019-04-04T17:30:00Z,30.2583,-88.2131,4.171,11.82,1111122 
DISL,ioos:station:DISL:KATA:1,2019-04-04T18:30:00Z,30.2583,-88.2131,4.16,11.87,1111122 
DISL,ioos:station:DISL:KATA:1,2019-04-04T19:30:00Z,30.2583,-88.2131,4.115,11.79,1111122 
DISL,ioos:station:DISL:KATA:1,2019-04-04T20:30:00Z,30.2583,-88.2131,4.021,11.76,1111122 
DISL,ioos:station:DISL:KATA:1,2019-04-04T21:30:00Z,30.2583,-88.2131,4.011,11.78,1111122 
DISL,ioos:station:DISL:KATA:1,2019-04-04T22:30:00Z,30.2583,-88.2131,3.966,11.76,1111122 
DISL,ioos:station:DISL:KATA:1,2019-04-04T23:30:00Z,30.2583,-88.2131,3.955,11.78,1111122 
DISL,ioos:station:DISL:KATA:1,2019-04-05T00:30:00Z,30.2583,-88.2131,3.988,11.82,1111122 
DISL,ioos:station:DISL:KATA:1,2019-04-05T01:30:00Z,30.2583,-88.2131,4.175,11.83,1111122 
DISL,ioos:station:DISL:KATA:1,2019-04-05T02:30:00Z,30.2583,-88.2131,4.357,11.95,1111122 
DISL,ioos:station:DISL:KATA:1,2019-04-05T03:30:00Z,30.2583,-88.2131,4.416,11.95,1111122 
DISL,ioos:station:DISL:KATA:1,2019-04-05T04:30:00Z,30.2583,-88.2131,4.345,11.96,1111122 
DISL,ioos:station:DISL:KATA:1,2019-04-05T05:30:00Z,30.2583,-88.2131,4.243,12.02,1111122 
DISL,ioos:station:DISL:KATA:1,2019-04-05T06:30:00Z,30.2583,-88.2131,4.21,11.99,1111122 
DISL,ioos:station:DISL:KATA:1,2019-04-05T07:30:00Z,30.2583,-88.2131,4.269,11.99,1111122 
DISL,ioos:station:DISL:KATA:1,2019-04-05T08:30:00Z,30.2583,-88.2131,4.286,12.08,1111122 
DISL,ioos:station:DISL:KATA:1,2019-04-05T09:30:00Z,30.2583,-88.2131,4.255,12.06,1111122 
DISL,ioos:station:DISL:KATA:1,2019-04-05T10:30:00Z,30.2583,-88.2131,4.208,12.07,1111122 
DISL,ioos:station:DISL:KATA:1,2019-04-05T11:30:00Z,30.2583,-88.2131,4.226,12.08,1111122 
DISL,ioos:station:DISL:KATA:1,2019-04-05T12:30:00Z,30.2583,-88.2131,4.239,12.08,1111122 
DISL,ioos:station:DISL:KATA:1,2019-04-05T13:30:00Z,30.2583,-88.2131,4.277,12.15,1111122 
DISL,ioos:station:DISL:KATA:1,2019-04-05T14:30:00Z,30.2583,-88.2131,4.282,12.22,1111122 
DISL,ioos:station:DISL:KATA:1,2019-04-05T15:30:00Z,30.2583,-88.2131,4.271,12.12,1111122 
DISL,ioos:station:DISL:KATA:1,2019-04-05T16:30:00Z,30.2583,-88.2131,4.287,12.13,1111122 
DISL,ioos:station:DISL:KATA:1,2019-04-05T17:30:00Z,30.2583,-88.2131,4.268,12.18,1111122 
DISL,ioos:station:DISL:KATA:1,2019-04-05T18:30:00Z,30.2583,-88.2131,4.246,12.12,1111122 
DISL,ioos:station:DISL:KATA:1,2019-04-05T19:30:00Z,30.2583,-88.2131,4.223,12.12,1111122 
DISL,ioos:station:DISL:KATA:1,2019-04-05T20:30:00Z,30.2583,-88.2131,4.179,12.1,1111122 
DISL,ioos:station:DISL:KATA:1,2019-04-05T21:30:00Z,30.2583,-88.2131,4.124,12.11,1111122 
DISL,ioos:station:DISL:KATA:1,2019-04-05T22:30:00Z,30.2583,-88.2131,4.079,12.14,1111122 
DISL,ioos:station:DISL:KATA:1,2019-04-05T23:30:00Z,30.2583,-88.2131,4.067,12.07,1111122 
DISL,ioos:station:DISL:KATA:1,2019-04-06T00:30:00Z,30.2583,-88.2131,4.097,12.08,1111122 
DISL,ioos:station:DISL:KATA:1,2019-04-06T01:30:00Z,30.2583,-88.2131,4.153,12.07,1111122 
DISL,ioos:station:DISL:KATA:1,2019-04-06T02:30:00Z,30.2583,-88.2131,4.203,12.05,1111122 
DISL,ioos:station:DISL:KATA:1,2019-04-06T03:30:00Z,30.2583,-88.2131,4.238,12.01,1111122 
DISL,ioos:station:DISL:KATA:1,2019-04-06T04:30:00Z,30.2583,-88.2131,4.261,11.92,1111122 
DISL,ioos:station:DISL:KATA:1,2019-04-06T05:30:00Z,30.2583,-88.2131,4.281,11.88,1111122 
DISL,ioos:station:DISL:KATA:1,2019-04-06T06:30:00Z,30.2583,-88.2131,4.309,11.78,1111122 
DISL,ioos:station:DISL:KATA:1,2019-04-06T07:30:00Z,30.2583,-88.2131,4.344,11.75,1111122 
DISL,ioos:station:DISL:KATA:1,2019-04-06T08:30:00Z,30.2583,-88.2131,4.339,11.72,1111122 
DISL,ioos:station:DISL:KATA:1,2019-04-06T09:30:00Z,30.2583,-88.2131,4.314,11.59,1111122 
DISL,ioos:station:DISL:KATA:1,2019-04-06T10:30:00Z,30.2583,-88.2131,4.264,11.62,1111122 
DISL,ioos:station:DISL:KATA:1,2019-04-06T11:30:00Z,30.2583,-88.2131,4.26,11.64,1111122 
DISL,ioos:station:DISL:KATA:1,2019-04-06T12:30:00Z,30.2583,-88.2131,4.272,11.56,1111122 
DISL,ioos:station:DISL:KATA:1,2019-04-06T13:30:00Z,30.2583,-88.2131,4.268,11.68,1111122 
DISL,ioos:station:DISL:KATA:1,2019-04-06T14:30:00Z,30.2583,-88.2131,4.301,11.67,1111122 
DISL,ioos:station:DISL:KATA:1,2019-04-06T15:30:00Z,30.2583,-88.2131,4.308,11.67,1111122 
DISL,ioos:station:DISL:KATA:1,2019-04-06T16:30:00Z,30.2583,-88.2131,4.265,11.65,1111122 
DISL,ioos:station:DISL:KATA:1,2019-04-06T17:30:00Z,30.2583,-88.2131,4.228,11.64,1111122 
DISL,ioos:station:DISL:KATA:1,2019-04-06T18:30:00Z,30.2583,-88.2131,4.21,11.61,1111122 
DISL,ioos:station:DISL:KATA:1,2019-04-06T19:30:00Z,30.2583,-88.2131,4.199,11.63,1111122 
DISL,ioos:station:DISL:KATA:1,2019-04-06T20:30:00Z,30.2583,-88.2131,4.147,11.62,1111122 
DISL,ioos:station:DISL:KATA:1,2019-04-06T21:30:00Z,30.2583,-88.2131,4.068,11.62,1111122 
DISL,ioos:station:DISL:KATA:1,2019-04-06T22:30:00Z,30.2583,-88.2131,4.0,11.6,1111122 
DISL,ioos:station:DISL:KATA:1,2019-04-06T23:30:00Z,30.2583,-88.2131,3.939,11.64,1111122 
DISL,ioos:station:DISL:KATA:1,2019-04-07T00:30:00Z,30.2583,-88.2131,3.917,11.6,1111122 
DISL,ioos:station:DISL:KATA:1,2019-04-07T01:30:00Z,30.2583,-88.2131,3.957,11.62,1111122 
DISL,ioos:station:DISL:KATA:1,2019-04-07T02:30:00Z,30.2583,-88.2131,4.032,11.58,1111122 
DISL,ioos:station:DISL:KATA:1,2019-04-07T03:30:00Z,30.2583,-88.2131,4.06,11.55,1111122 
DISL,ioos:station:DISL:KATA:1,2019-04-07T04:30:00Z,30.2583,-88.2131,4.068,11.57,1111122 
DISL,ioos:station:DISL:KATA:1,2019-04-07T05:30:00Z,30.2583,-88.2131,4.081,11.6,1111122 
DISL,ioos:station:DISL:KATA:1,2019-04-07T06:30:00Z,30.2583,-88.2131,4.133,11.77,1111122 
DISL,ioos:station:DISL:KATA:1,2019-04-07T07:30:00Z,30.2583,-88.2131,4.184,11.68,1111122 
DISL,ioos:station:DISL:KATA:1,2019-04-07T08:30:00Z,30.2583,-88.2131,4.234,11.71,1111122 
DISL,ioos:station:DISL:KATA:1,2019-04-07T09:30:00Z,30.2583,-88.2131,4.248,11.76,1111122 
DISL,ioos:station:DISL:KATA:1,2019-04-07T10:30:00Z,30.2583,-88.2131,4.251,11.71,1111122 
DISL,ioos:station:DISL:KATA:1,2019-04-07T11:30:00Z,30.2583,-88.2131,4.248,11.75,1111122 
DISL,ioos:station:DISL:KATA:1,2019-04-07T12:30:00Z,30.2583,-88.2131,4.269,11.78,1111122 
DISL,ioos:station:DISL:KATA:1,2019-04-07T13:30:00Z,30.2583,-88.2131,4.294,11.78,1111122 
DISL,ioos:station:DISL:KATA:1,2019-04-07T14:30:00Z,30.2583,-88.2131,4.346,11.77,1111122 
DISL,ioos:station:DISL:KATA:1,2019-04-07T15:30:00Z,30.2583,-88.2131,4.373,11.77,1111122 
DISL,ioos:station:DISL:KATA:1,2019-04-07T16:30:00Z,30.2583,-88.2131,4.392,11.79,1111122 
DISL,ioos:station:DISL:KATA:1,2019-04-07T17:30:00Z,30.2583,-88.2131,4.38,11.72,1111122 
DISL,ioos:station:DISL:KATA:1,2019-04-07T18:30:00Z,30.2583,-88.2131,4.328,11.72,1111122 
DISL,ioos:station:DISL:KATA:1,2019-04-07T19:30:00Z,30.2583,-88.2131,4.303,11.55,1111122 
DISL,ioos:station:DISL:KATA:1,2019-04-07T20:30:00Z,30.2583,-88.2131,4.272,11.41,1111122 
DISL,ioos:station:DISL:KATA:1,2019-04-07T21:30:00Z,30.2583,-88.2131,4.182,11.51,1111122 
DISL,ioos:station:DISL:KATA:1,2019-04-07T22:30:00Z,30.2583,-88.2131,4.066,11.56,1111122 
DISL,ioos:station:DISL:KATA:1,2019-04-07T23:30:00Z,30.2583,-88.2131,3.999,11.34,1111122 
DISL,ioos:station:DISL:KATA:1,2019-04-08T00:30:00Z,30.2583,-88.2131,3.989,11.37,1111122 
DISL,ioos:station:DISL:KATA:1,2019-04-08T01:30:00Z,30.2583,-88.2131,3.983,11.41,1111122 
DISL,ioos:station:DISL:KATA:1,2019-04-08T02:30:00Z,30.2583,-88.2131,4.004,11.4,1111122 
DISL,ioos:station:DISL:KATA:1,2019-04-08T03:30:00Z,30.2583,-88.2131,4.02,11.43,1111122 
DISL,ioos:station:DISL:KATA:1,2019-04-08T04:30:00Z,30.2583,-88.2131,4.079,11.38,1111122 
DISL,ioos:station:DISL:KATA:1,2019-04-08T05:30:00Z,30.2583,-88.2131,4.097,11.35,1111122 
DISL,ioos:station:DISL:KATA:1,2019-04-08T06:30:00Z,30.2583,-88.2131,4.207,11.21,1111122 
DISL,ioos:station:DISL:KATA:1,2019-04-08T07:30:00Z,30.2583,-88.2131,4.133,11.31,1111122 
DISL,ioos:station:DISL:KATA:1,2019-04-08T08:30:00Z,30.2583,-88.2131,4.15,11.4,1111122 
DISL,ioos:station:DISL:KATA:1,2019-04-08T09:30:00Z,30.2583,-88.2131,4.189,11.27,1111122 
DISL,ioos:station:DISL:KATA:1,2019-04-08T10:30:00Z,30.2583,-88.2131,4.251,11.33,1111122 
DISL,ioos:station:DISL:KATA:1,2019-04-08T11:30:00Z,30.2583,-88.2131,4.332,11.28,1111122 
DISL,ioos:station:DISL:KATA:1,2019-04-08T12:30:00Z,30.2583,-88.2131,4.379,11.27,1111122 
DISL,ioos:station:DISL:KATA:1,2019-04-08T13:30:00Z,30.2583,-88.2131,4.445,11.17,1111122 
DISL,ioos:station:DISL:KATA:1,2019-04-08T14:30:00Z,30.2583,-88.2131,4.481,11.19,1111122 
DISL,ioos:station:DISL:KATA:1,2019-04-08T15:30:00Z,30.2583,-88.2131,4.486,11.08,1111122 
DISL,ioos:station:DISL:KATA:1,2019-04-08T16:30:00Z,30.2583,-88.2131,4.5,11.1,1111122 
DISL,ioos:station:DISL:KATA:1,2019-04-08T17:30:00Z,30.2583,-88.2131,4.398,11.13,1111122 
DISL,ioos:station:DISL:KATA:1,2019-04-08T18:30:00Z,30.2583,-88.2131,4.399,11.15,1111122 
DISL,ioos:station:DISL:KATA:1,2019-04-08T19:30:00Z,30.2583,-88.2131,4.391,11.19,1111122 
DISL,ioos:station:DISL:KATA:1,2019-04-08T20:30:00Z,30.2583,-88.2131,4.334,11.07,1111122 
DISL,ioos:station:DISL:KATA:1,2019-04-08T21:30:00Z,30.2583,-88.2131,4.242,11.14,1111122 
DISL,ioos:station:DISL:KATA:1,2019-04-08T22:30:00Z,30.2583,-88.2131,4.207,11.05,1111122 
DISL,ioos:station:DISL:KATA:1,2019-04-08T23:30:00Z,30.2583,-88.2131,4.155,11.12,1111122 
DISL,ioos:station:DISL:KATA:1,2019-04-09T00:30:00Z,30.2583,-88.2131,4.141,11.14,1111122 
DISL,ioos:station:DISL:KATA:1,2019-04-09T01:30:00Z,30.2583,-88.2131,4.133,11.15,1111122 
DISL,ioos:station:DISL:KATA:1,2019-04-09T02:30:00Z,30.2583,-88.2131,4.084,11.11,1111122 
DISL,ioos:station:DISL:KATA:1,2019-04-09T03:30:00Z,30.2583,-88.2131,4.078,11.07,1111122 
DISL,ioos:station:DISL:KATA:1,2019-04-09T04:30:00Z,30.2583,-88.2131,4.067,11.08,1111122 
DISL,ioos:station:DISL:KATA:1,2019-04-09T05:30:00Z,30.2583,-88.2131,4.13,11.06,1111122 
DISL,ioos:station:DISL:KATA:1,2019-04-09T06:30:00Z,30.2583,-88.2131,4.213,11.16,1111122 
DISL,ioos:station:DISL:KATA:1,2019-04-09T07:30:00Z,30.2583,-88.2131,4.206,11.14,1111122 
DISL,ioos:station:DISL:KATA:1,2019-04-09T08:30:00Z,30.2583,-88.2131,4.198,11.08,1111122 
DISL,ioos:station:DISL:KATA:1,2019-04-09T09:30:00Z,30.2583,-88.2131,4.276,11.01,1111122 
DISL,ioos:station:DISL:KATA:1,2019-04-09T10:30:00Z,30.2583,-88.2131,4.318,10.93,1111122 
DISL,ioos:station:DISL:KATA:1,2019-04-09T11:30:00Z,30.2583,-88.2131,4.288,10.82,1111122 
DISL,ioos:station:DISL:KATA:1,2019-04-09T12:30:00Z,30.2583,-88.2131,4.316,10.91,1111122 
DISL,ioos:station:DISL:KATA:1,2019-04-09T13:30:00Z,30.2583,-88.2131,4.343,10.94,1111122 
DISL,ioos:station:DISL:KATA:1,2019-04-09T14:30:00Z,30.2583,-88.2131,4.344,10.98,1111122 
DISL,ioos:station:DISL:KATA:1,2019-04-09T15:30:00Z,30.2583,-88.2131,4.393,10.92,1111122 
DISL,ioos:station:DISL:KATA:1,2019-04-09T16:30:00Z,30.2583,-88.2131,4.451,10.97,1111122 
DISL,ioos:station:DISL:KATA:1,2019-04-09T17:30:00Z,30.2583,-88.2131,4.465,11.17,1111122 
DISL,ioos:station:DISL:KATA:1,2019-04-09T18:30:00Z,30.2583,-88.2131,4.434,11.22,1111122 
DISL,ioos:station:DISL:KATA:1,2019-04-09T19:30:00Z,30.2583,-88.2131,4.402,11.18,1111122 
DISL,ioos:station:DISL:KATA:1,2019-04-09T20:30:00Z,30.2583,-88.2131,4.417,11.15,1111122 
DISL,ioos:station:DISL:KATA:1,2019-04-09T21:30:00Z,30.2583,-88.2131,4.363,11.15,1111122 
DISL,ioos:station:DISL:KATA:1,2019-04-09T22:30:00Z,30.2583,-88.2131,4.28,11.14,1111122 
DISL,ioos:station:DISL:KATA:1,2019-04-09T23:30:00Z,30.2583,-88.2131,4.173,11.08,1111122 
DISL,ioos:station:DISL:KATA:1,2019-04-10T00:30:00Z,30.2583,-88.2131,4.068,11.08,1111122 
DISL,ioos:station:DISL:KATA:1,2019-04-10T01:30:00Z,30.2583,-88.2131,4.014,10.95,1111122 
DISL,ioos:station:DISL:KATA:1,2019-04-10T02:30:00Z,30.2583,-88.2131,3.98,10.9,1111122 
DISL,ioos:station:DISL:KATA:1,2019-04-10T03:30:00Z,30.2583,-88.2131,3.947,10.7,1111122 
DISL,ioos:station:DISL:KATA:1,2019-04-10T04:30:00Z,30.2583,-88.2131,3.929,10.74,1111122 
DISL,ioos:station:DISL:KATA:1,2019-04-10T05:30:00Z,30.2583,-88.2131,3.927,10.81,1111122 
DISL,ioos:station:DISL:KATA:1,2019-04-10T06:30:00Z,30.2583,-88.2131,3.965,10.81,1111122 
DISL,ioos:station:DISL:KATA:1,2019-04-10T07:30:00Z,30.2583,-88.2131,4.003,10.82,1111122 
DISL,ioos:station:DISL:KATA:1,2019-04-10T08:30:00Z,30.2583,-88.2131,4.037,10.8,1111122 
DISL,ioos:station:DISL:KATA:1,2019-04-10T09:30:00Z,30.2583,-88.2131,4.073,10.78,1111122 
DISL,ioos:station:DISL:KATA:1,2019-04-10T10:30:00Z,30.2583,-88.2131,4.109,10.88,1111122 
DISL,ioos:station:DISL:KATA:1,2019-04-10T11:30:00Z,30.2583,-88.2131,4.146,10.88,1111122 
DISL,ioos:station:DISL:KATA:1,2019-04-10T12:30:00Z,30.2583,-88.2131,4.202,10.93,1111122 
DISL,ioos:station:DISL:KATA:1,2019-04-10T13:30:00Z,30.2583,-88.2131,4.258,10.9,1111122 
DISL,ioos:station:DISL:KATA:1,2019-04-10T14:30:00Z,30.2583,-88.2131,4.305,10.87,1111122 
DISL,ioos:station:DISL:KATA:1,2019-04-10T15:30:00Z,30.2583,-88.2131,4.35,10.8,1111122 
DISL,ioos:station:DISL:KATA:1,2019-04-10T16:30:00Z,30.2583,-88.2131,4.391,10.83,1111122 
DISL,ioos:station:DISL:KATA:1,2019-04-10T17:30:00Z,30.2583,-88.2131,4.417,10.94,1111122 
DISL,ioos:station:DISL:KATA:1,2019-04-10T18:30:00Z,30.2583,-88.2131,4.417,10.98,1111122 
DISL,ioos:station:DISL:KATA:1,2019-04-10T19:30:00Z,30.2583,-88.2131,4.395,11.02,1111122 
DISL,ioos:station:DISL:KATA:1,2019-04-10T20:30:00Z,30.2583,-88.2131,4.351,10.88,1111122 
DISL,ioos:station:DISL:KATA:1,2019-04-10T21:30:00Z,30.2583,-88.2131,4.292,10.84,1111122 
DISL,ioos:station:DISL:KATA:1,2019-04-10T22:30:00Z,30.2583,-88.2131,4.241,10.73,1111122 
DISL,ioos:station:DISL:KATA:1,2019-04-10T23:30:00Z,30.2583,-88.2131,4.185,10.5,1111122 
DISL,ioos:station:DISL:KATA:1,2019-04-11T00:30:00Z,30.2583,-88.2131,4.116,10.46,1111122 
DISL,ioos:station:DISL:KATA:1,2019-04-11T01:30:00Z,30.2583,-88.2131,4.036,10.27,1111122 
DISL,ioos:station:DISL:KATA:1,2019-04-11T02:30:00Z,30.2583,-88.2131,3.965,10.07,1111122 
DISL,ioos:station:DISL:KATA:1,2019-04-11T03:30:00Z,30.2583,-88.2131,3.915,9.97,1111122 
DISL,ioos:station:DISL:KATA:1,2019-04-11T04:30:00Z,30.2583,-88.2131,3.885,10.12,1111122 
DISL,ioos:station:DISL:KATA:1,2019-04-11T05:30:00Z,30.2583,-88.2131,3.866,10.05,1111122 
DISL,ioos:station:DISL:KATA:1,2019-04-11T06:30:00Z,30.2583,-88.2131,3.87,10.03,1111122 
DISL,ioos:station:DISL:KATA:1,2019-04-11T07:30:00Z,30.2583,-88.2131,3.897,9.98,1111122 
DISL,ioos:station:DISL:KATA:1,2019-04-11T08:30:00Z,30.2583,-88.2131,3.949,10.01,1111122 
DISL,ioos:station:DISL:KATA:1,2019-04-11T09:30:00Z,30.2583,-88.2131,4.014,10.02,1111122 
DISL,ioos:station:DISL:KATA:1,2019-04-11T10:30:00Z,30.2583,-88.2131,4.078,10.06,1111122 
DISL,ioos:station:DISL:KATA:1,2019-04-11T11:30:00Z,30.2583,-88.2131,4.13,10.22,1111122 
DISL,ioos:station:DISL:KATA:1,2019-04-11T12:30:00Z,30.2583,-88.2131,4.176,10.17,1111122 
DISL,ioos:station:DISL:KATA:1,2019-04-11T13:30:00Z,30.2583,-88.2131,4.246,10.29,1111122 
DISL,ioos:station:DISL:KATA:1,2019-04-11T14:30:00Z,30.2583,-88.2131,4.319,10.18,1111122 
DISL,ioos:station:DISL:KATA:1,2019-04-11T15:30:00Z,30.2583,-88.2131,4.389,10.23,1111122 
DISL,ioos:station:DISL:KATA:1,2019-04-11T16:30:00Z,30.2583,-88.2131,4.423,10.19,1111122 
DISL,ioos:station:DISL:KATA:1,2019-04-11T17:30:00Z,30.2583,-88.2131,4.468,10.21,1111122 
DISL,ioos:station:DISL:KATA:1,2019-04-11T18:30:00Z,30.2583,-88.2131,4.502,10.18,1111122 
DISL,ioos:station:DISL:KATA:1,2019-04-11T19:30:00Z,30.2583,-88.2131,4.505,10.11,1111122 
DISL,ioos:station:DISL:KATA:1,2019-04-11T20:30:00Z,30.2583,-88.2131,4.455,10.11,1111122 
DISL,ioos:station:DISL:KATA:1,2019-04-11T21:30:00Z,30.2583,-88.2131,4.382,10.12,1111122 
DISL,ioos:station:DISL:KATA:1,2019-04-11T22:30:00Z,30.2583,-88.2131,4.321,10.11,1111122 
DISL,ioos:station:DISL:KATA:1,2019-04-11T23:30:00Z,30.2583,-88.2131,4.252,10.12,1111122 
DISL,ioos:station:DISL:KATA:1,2019-04-12T00:30:00Z,30.2583,-88.2131,4.174,10.04,1111122 
DISL,ioos:station:DISL:KATA:1,2019-04-12T01:30:00Z,30.2583,-88.2131,4.104,9.78,1111122 
DISL,ioos:station:DISL:KATA:1,2019-04-12T02:30:00Z,30.2583,-88.2131,4.036,9.63,1111122 
DISL,ioos:station:DISL:KATA:1,2019-04-12T03:30:00Z,30.2583,-88.2131,4.0,9.26,1111122 
DISL,ioos:station:DISL:KATA:1,2019-04-12T04:30:00Z,30.2583,-88.2131,3.969,9.45,1111122 